Weather History for CWSA - March, 2013

Change the Weather History Date:

Saturday, March 23, 2013

  Actual Average Record
Temperature  
Mean Temperature 36 °F -  
Max Temperature 41 °F 36 °F 50 °F (1999)
Min Temperature 31 °F 28 °F 21 °F (2015)
Degree Days  
Heating Degree Days 29    
Moisture  
Dew Point 30 °F    
Average Humidity 82    
Maximum Humidity 100    
Minimum Humidity 50    
Precipitation  
Precipitation 0.00 in - - ()
Sea Level Pressure  
Sea Level Pressure 29.50 in    
Wind  
Wind Speed 11 mph ()    
Max Wind Speed 24 mph    
Max Gust Speed 31 mph    
Visibility 4.0 miles    
Events Rain , Snow    
Averages and records for this station are not official NWS values.
T = Trace of Precipitation, MM = Missing Value Source: Averaged Metar Reports

Daily Weather History Graph

Daily Weather History Graph

Search for Another Location

Airport or City:

Trip Planner

Search our weather history database for the weather conditions in past years. The results will help you decide how hot, cold, wet, or windy it might be!

Date:

Astronomy

Mar. 23, 2013 Rise Set
Actual Time 6:57 AM ADT 7:16 PM ADT
Civil Twilight 6:28 AM ADT 7:45 PM ADT
Nautical Twilight 5:54 AM ADT 8:19 PM ADT
Astronomical Twilight 5:19 AM ADT 8:54 PM ADT
Moon 3:31 PM ADT (3/23) 4:37 AM ADT (3/23)
Length of Visible Light 13h 16m
Length of Day
12h 18m
Waxing Gibbous, 84% of the Moon is Illuminated
Mar 23
Waxing Gibbous
Mar 27
Full
Apr 3
Last Quarter
Apr 10
New
Apr 18
First Quarter

Hourly Weather History & Observations

Time (ADT) Temp. Windchill Dew Point Humidity Pressure Visibility Wind Dir Wind Speed Gust Speed Precip Events Conditions
12:00 AM 36 °F - 31 °F 76% 29.52 in 4 mi SW 11.5 mph - -  
12:00 AM 35.6 °F 27.1 °F 32.0 °F 87% 29.52 in 4.0 mi SW 12.7 mph - N/A   Clear
1:00 AM 35.6 °F 28.0 °F 32.0 °F 87% 29.51 in 5.0 mi SW 10.4 mph - N/A   Scattered Clouds
3:00 AM 36 °F - 29 °F 67% 29.50 in 5 mi WSW 15.0 mph - -  
3:00 AM 35.6 °F 26.6 °F 28.4 °F 75% 29.50 in 5.0 mi West 13.8 mph 21.9 mph N/A   Mostly Cloudy
3:06 AM 35.6 °F 25.5 °F 28.4 °F 75% 29.50 in 6.0 mi West 17.3 mph - N/A   Overcast
3:09 AM 35.6 °F 26.2 °F 28.4 °F 75% 29.50 in 6.0 mi WSW 15.0 mph - N/A Snow Light Snow
3:24 AM 33.8 °F 24.3 °F 30.2 °F 87% 29.50 in 2.4 mi WSW 13.8 mph - N/A Snow Light Snow
3:29 AM 33.8 °F 24.8 °F 30.2 °F 87% 29.50 in 1.8 mi WSW 12.7 mph - N/A   Unknown
3:30 AM 33.8 °F 25.3 °F 30.2 °F 87% 29.50 in 1.8 mi WSW 11.5 mph - N/A   Unknown
3:49 AM 33.8 °F 26.4 °F 32.0 °F 93% 29.50 in 3.5 mi West 9.2 mph - N/A   Unknown
4:00 AM 33.8 °F 24.3 °F 32.0 °F 93% 29.50 in 3.5 mi West 13.8 mph - N/A   Overcast
4:06 AM 33.8 °F 24.8 °F 32.0 °F 93% 29.50 in 3.0 mi West 12.7 mph - N/A   Unknown
4:09 AM 33.8 °F 24.8 °F 32.0 °F 93% 29.50 in 2.5 mi West 12.7 mph - N/A   Unknown
4:20 AM 33.8 °F 25.8 °F 32.0 °F 93% 29.49 in 2.1 mi West 10.4 mph - N/A   Unknown
4:29 AM 33.8 °F 26.4 °F 32.0 °F 93% 29.49 in 1.6 mi West 9.2 mph - N/A   Unknown
4:32 AM 33.8 °F 26.4 °F 32.0 °F 93% 29.50 in 1.8 mi West 9.2 mph - N/A   Unknown
4:44 AM 33.8 °F 25.8 °F 32.0 °F 93% 29.50 in 2.5 mi West 10.4 mph - N/A   Overcast
4:50 AM 33.8 °F 25.8 °F 32.0 °F 93% 29.50 in 3.5 mi WNW 10.4 mph - N/A   Overcast
4:55 AM 33.8 °F 25.8 °F 30.2 °F 87% 29.50 in 3.5 mi WNW 10.4 mph - N/A   Overcast
4:56 AM 33.8 °F 25.8 °F 30.2 °F 87% 29.50 in 4.0 mi WNW 10.4 mph - N/A   Mostly Cloudy
4:57 AM 33.8 °F 26.4 °F 30.2 °F 87% 29.50 in 4.0 mi WNW 9.2 mph - N/A   Overcast
5:00 AM 33.8 °F 26.4 °F 30.2 °F 87% 29.50 in 4.0 mi West 9.2 mph - N/A   Overcast
5:12 AM 33.8 °F 26.4 °F 32.0 °F 93% 29.50 in 4.0 mi West 9.2 mph - N/A   Overcast
5:14 AM 33.8 °F 25.8 °F 30.2 °F 87% 29.50 in 3.5 mi West 10.4 mph - N/A   Unknown
5:16 AM 33.8 °F 25.8 °F 32.0 °F 93% 29.50 in 3.0 mi West 10.4 mph - N/A   Unknown
5:17 AM 33.8 °F 26.4 °F 32.0 °F 93% 29.50 in 2.2 mi West 9.2 mph - N/A   Unknown
5:22 AM 33.8 °F 26.4 °F 30.2 °F 87% 29.50 in 1.4 mi West 9.2 mph - N/A   Unknown
5:32 AM 32.0 °F 23.6 °F 30.2 °F 93% 29.50 in 1.0 mi West 10.4 mph - N/A   Unknown
5:34 AM 32.0 °F 24.2 °F 30.2 °F 93% 29.50 in 1.0 mi West 9.2 mph - N/A Snow Light Snow
5:38 AM 32.0 °F 23.6 °F 30.2 °F 93% 29.50 in 0.8 mi West 10.4 mph - N/A   Heavy Freezing Drizzle
5:46 AM 32.0 °F 23.0 °F 30.2 °F 93% 29.51 in 1.5 mi West 11.5 mph - N/A   Heavy Freezing Drizzle
5:55 AM 32.0 °F 23.6 °F 30.2 °F 93% 29.51 in 1.4 mi West 10.4 mph - N/A   Light Freezing Drizzle
6:00 AM 33 °F - 31 °F 90% 29.52 in 1 mi West 10.4 mph - - Rain Light Rain
6:00 AM 32.0 °F 23.6 °F 32.0 °F 100% 29.52 in 1.0 mi West 10.4 mph - N/A   Heavy Freezing Drizzle
6:01 AM 32.0 °F 23.6 °F 32.0 °F 100% 29.51 in 1.0 mi West 10.4 mph - N/A   Heavy Freezing Drizzle
6:11 AM 32.0 °F 23.0 °F 30.2 °F 93% 29.51 in 1.5 mi West 11.5 mph - N/A   Light Freezing Drizzle
6:13 AM 32.0 °F 22.5 °F 30.2 °F 93% 29.51 in 1.5 mi West 12.7 mph - N/A   Unknown
6:35 AM 32.0 °F 24.2 °F 30.2 °F 93% 29.51 in 1.5 mi West 9.2 mph - N/A   Unknown
6:57 AM 32.0 °F 23.0 °F 30.2 °F 93% 29.52 in 1.2 mi West 11.5 mph 18.4 mph N/A   Unknown
7:00 AM 32.0 °F 22.1 °F 30.2 °F 93% 29.53 in 1.0 mi West 13.8 mph - N/A   Unknown
7:09 AM 32.0 °F 25.6 °F 30.2 °F 93% 29.52 in 1.0 mi West 6.9 mph - N/A Snow Light Snow
7:11 AM 32.0 °F 25.6 °F 28.4 °F 87% 29.52 in 1.8 mi WNW 6.9 mph - N/A Snow Light Snow
7:23 AM 32.0 °F 28.7 °F 30.2 °F 93% 29.52 in 6.0 mi West 3.5 mph - N/A   Unknown
7:33 AM 32.0 °F 26.4 °F 30.2 °F 93% 29.52 in 5.0 mi WSW 5.8 mph - N/A   Unknown
7:52 AM 32.0 °F 25.6 °F 30.2 °F 93% 29.52 in 5.0 mi WSW 6.9 mph - N/A   Overcast
8:00 AM 33.8 °F 27.7 °F 30.2 °F 87% 29.53 in 5.0 mi WSW 6.9 mph - N/A   Overcast
9:00 AM 36 °F - 32 °F 79% 29.53 in 5 mi WSW 13.8 mph - -   Unknown Precipitation
9:00 AM 35.6 °F 26.6 °F 32.0 °F 87% 29.53 in 5.0 mi WSW 13.8 mph - N/A   Scattered Clouds
10:00 AM 37.4 °F 28.2 °F 30.2 °F 75% 29.53 in 6.0 mi WSW 16.1 mph - N/A   Clear
11:00 AM 39.2 °F 29.8 °F 30.2 °F 70% 29.53 in 6.0 mi WSW 18.4 mph - N/A   Partly Cloudy
11:28 AM 33.8 °F 21.3 °F 28.4 °F 81% 29.53 in 5.0 mi WSW 24.2 mph - N/A   Mostly Cloudy
11:31 AM 33.8 °F 21.3 °F 30.2 °F 87% 29.53 in 4.0 mi WSW 24.2 mph - N/A Snow Light Snow
11:35 AM 33.8 °F 21.6 °F 30.2 °F 87% 29.53 in 2.5 mi WSW 23.0 mph 31.1 mph N/A Snow Light Snow
11:38 AM 33.8 °F 22.2 °F 30.2 °F 87% 29.53 in 1.5 mi WSW 20.7 mph 31.1 mph N/A Snow Light Snow
11:39 AM 33.8 °F 22.2 °F 30.2 °F 87% 29.53 in 1.4 mi WSW 20.7 mph 31.1 mph N/A Snow Light Snow
11:53 AM 35.6 °F 25.5 °F 28.4 °F 75% 29.52 in 3.5 mi WSW 17.3 mph - N/A Snow Light Snow
11:59 AM 37.4 °F 28.2 °F 28.4 °F 70% 29.52 in 7.0 mi SW 16.1 mph - N/A   Mostly Cloudy
12:00 PM 37 °F - 29 °F 63% 29.52 in 7 mi WSW 16.1 mph - -  
12:00 PM 37.4 °F 27.8 °F 28.4 °F 70% 29.52 in 7.0 mi SW 17.3 mph - N/A   Mostly Cloudy
12:01 PM 37.4 °F 27.8 °F 30.2 °F 75% 29.52 in 7.0 mi SW 17.3 mph - N/A   Mostly Cloudy
12:59 PM 39.2 °F 31.2 °F 32.0 °F 75% 29.51 in 6.0 mi SW 13.8 mph - N/A   Overcast
1:00 PM 39.2 °F 31.2 °F 30.2 °F 70% 29.51 in 6.0 mi SW 13.8 mph - N/A   Unknown
1:03 PM 39.2 °F 31.6 °F 32.0 °F 75% 29.50 in 6.0 mi WSW 12.7 mph - N/A   Overcast
1:20 PM 39.2 °F 31.2 °F 26.6 °F 61% 29.51 in 6.0 mi West 13.8 mph - N/A   Scattered Clouds
2:00 PM 41.0 °F 34.3 °F 28.4 °F 61% 29.50 in 8.0 mi WSW 11.5 mph - N/A   Clear
3:00 PM 41 °F - 29 °F 50% 29.49 in 7 mi WSW 10.4 mph - -  
3:00 PM 41.0 °F 34.7 °F 28.4 °F 61% 29.49 in 7.0 mi WSW 10.4 mph - N/A   Clear
4:00 PM 39.2 °F 32.0 °F 26.6 °F 61% 29.49 in 7.0 mi WSW 11.5 mph - N/A   Clear
5:00 PM 37.4 °F 30.8 °F 28.4 °F 70% 29.49 in 7.0 mi SW 9.2 mph - N/A   Overcast
6:00 PM 36 °F - 28 °F 62% 29.48 in 7 mi SW 10.4 mph - -  
6:00 PM 35.6 °F 27.5 °F 28.4 °F 75% 29.48 in 7.0 mi SW 11.5 mph - N/A   Mostly Cloudy
7:00 PM 35.6 °F 26.2 °F 28.4 °F 75% 29.48 in 7.0 mi WSW 15.0 mph - N/A   Overcast
8:00 PM 35.6 °F 26.2 °F 26.6 °F 70% 29.48 in 7.0 mi WSW 15.0 mph - N/A   Mostly Cloudy
9:00 PM 35 °F - 25 °F 55% 29.47 in 6 mi WSW 12.7 mph - -  
9:00 PM 35.6 °F 27.1 °F 24.8 °F 65% 29.47 in 6.0 mi WSW 12.7 mph - N/A   Partly Cloudy
10:00 PM 35.6 °F 28.0 °F 26.6 °F 70% 29.48 in 6.0 mi WSW 10.4 mph - N/A   Partly Cloudy
10:04 PM 33.8 °F 24.8 °F 26.6 °F 75% 29.47 in 6.0 mi West 12.7 mph 19.6 mph N/A Rain Light Rain
10:19 PM 33.8 °F 24.8 °F 24.8 °F 70% 29.47 in 7.0 mi WSW 12.7 mph - N/A   Mostly Cloudy
11:00 PM 33.8 °F 25.3 °F 26.6 °F 75% 29.46 in 6.0 mi SW 11.5 mph - N/A   Scattered Clouds
11:09 PM 33.8 °F 23.9 °F 26.6 °F 75% 29.46 in 6.0 mi WSW 15.0 mph - N/A Snow Light Snow
11:13 PM 33.8 °F 23.9 °F 26.6 °F 75% 29.46 in 4.0 mi WSW 15.0 mph - N/A Snow Light Snow
11:14 PM 33.8 °F 23.9 °F 26.6 °F 75% 29.46 in 3.0 mi West 15.0 mph - N/A Snow Light Snow
11:15 PM 33.8 °F 23.9 °F 26.6 °F 75% 29.46 in 2.4 mi West 15.0 mph - N/A Snow Light Snow
11:18 PM 32.0 °F 22.1 °F 26.6 °F 80% 29.46 in 1.2 mi WSW 13.8 mph - N/A Snow Light Snow
11:20 PM 32.0 °F 23.6 °F 28.4 °F 87% 29.46 in 1.0 mi WSW 10.4 mph 18.4 mph N/A Snow Light Snow
11:29 PM 32.0 °F 25.6 °F 28.4 °F 87% 29.46 in 2.0 mi SW 6.9 mph - N/A Snow Light Snow
11:36 PM 32.0 °F 24.8 °F 28.4 °F 87% 29.45 in 2.5 mi SW 8.1 mph - N/A   Unknown
11:40 PM 32.0 °F 24.8 °F 28.4 °F 87% 29.45 in 5.0 mi SW 8.1 mph - N/A   Mostly Cloudy
11:44 PM 33.8 °F 25.8 °F 28.4 °F 81% 29.45 in 5.0 mi SW 10.4 mph - N/A   Unknown
11:58 PM 32.0 °F 22.1 °F 28.4 °F 87% 29.45 in 7.0 mi SSW 13.8 mph 19.6 mph N/A   Overcast